| time (UTC) | temp F | wind direction | speed MPH | gust MPH | rain 1hr in | rain 24hr in | rain mn in | humidity % | barometer mb |
| 20260508023004 | 38 | 100 | 7.0 | 10.0 | 0.00 | 0.00 | 0.00 | 67 | 1020.0 |
| 20260508022506 | 38 | 100 | 7.0 | 11.0 | 0.00 | 0.00 | 0.00 | 67 | 1019.0 |
| 20260508021504 | 38 | 100 | 5.0 | 7.0 | 0.00 | 0.00 | 0.00 | 64 | 1019.0 |
| 20260508021005 | 38 | 93 | 5.0 | 7.0 | 0.00 | 0.00 | 0.00 | 63 | 1020.0 |
| 20260508020504 | 38 | 98 | 4.0 | 7.0 | 0.00 | 0.00 | 0.00 | 64 | 1020.0 |
| 20260508020005 | 38 | 105 | 3.0 | 6.0 | 0.00 | 0.00 | 0.00 | 63 | 1020.0 |
| 20260508015504 | 38 | 103 | 4.0 | 7.0 | 0.00 | 0.00 | 0.00 | 63 | 1019.0 |
| 20260508015004 | 38 | 98 | 5.0 | 7.0 | 0.00 | 0.00 | 0.00 | 63 | 1019.0 |
| 20260508014504 | 38 | 96 | 5.0 | 6.0 | 0.00 | 0.00 | 0.00 | 63 | 1019.0 |
| 20260508014005 | 38 | 98 | 5.0 | 6.0 | 0.00 | 0.00 | 0.00 | 63 | 1019.0 |
| 20260508013505 | 38 | 94 | 5.0 | 6.0 | 0.00 | 0.00 | 0.00 | 63 | 1019.0 |
| 20260508013005 | 38 | 90 | 5.0 | 6.0 | 0.00 | 0.00 | 0.00 | 63 | 1019.0 |
| 20260508012505 | 38 | 97 | 5.0 | 6.0 | 0.00 | 0.00 | 0.00 | 63 | 1019.0 |
| 20260508012005 | 38 | 107 | 5.0 | 6.0 | 0.00 | 0.00 | 0.00 | 63 | 1019.0 |
| 20260508011504 | 38 | 101 | 5.0 | 6.0 | 0.00 | 0.00 | 0.00 | 64 | 1019.0 |
| 20260508011005 | 38 | 98 | 5.0 | 6.0 | 0.00 | 0.00 | 0.00 | 64 | 1019.0 |
| 20260508010504 | 38 | 99 | 3.0 | 6.0 | 0.00 | 0.00 | 0.00 | 64 | 1019.0 |
| 20260508010004 | 39 | 91 | 3.0 | 6.0 | 0.00 | 0.00 | 0.00 | 63 | 1019.0 |
| 20260508005505 | 39 | 103 | 4.0 | 7.0 | 0.00 | 0.00 | 0.00 | 62 | 1019.0 |
| 20260508005005 | 39 | 101 | 5.0 | 7.0 | 0.00 | 0.00 | 0.00 | 62 | 1019.0 |
| 20260508004505 | 39 | 94 | 4.0 | 5.0 | 0.00 | 0.00 | 0.00 | 60 | 1019.0 |
| 20260508004005 | 39 | 99 | 2.0 | 5.0 | 0.00 | 0.00 | 0.00 | 60 | 1019.0 |
| 20260508003505 | 39 | 106 | 2.0 | 5.0 | 0.00 | 0.00 | 0.00 | 59 | 1019.0 |
| 20260508002505 | 40 | 110 | 3.0 | 5.0 | 0.00 | 0.00 | 0.00 | 58 | 1019.0 |
| 20260508002005 | 40 | 113 | 1.0 | 5.0 | 0.00 | 0.00 | 0.00 | 57 | 1019.0 |
| 20260508001005 | 41 | 135 | 0.0 | 2.0 | 0.00 | 0.00 | 0.00 | 56 | 1019.0 |
| 20260508000504 | 41 | 135 | 0.0 | 2.0 | 0.00 | 0.00 | 0.00 | 55 | 1019.0 |
| 20260507235505 | 41 | 0 | 0.0 | 0.0 | 0.00 | 0.00 | 0.00 | 55 | 1019.0 |
| 20260507235005 | 42 | 0 | 0.0 | 0.0 | 0.00 | 0.00 | 0.00 | 55 | 1019.0 |
| 20260507234504 | 42 | 0 | 0.0 | 0.0 | 0.00 | 0.00 | 0.00 | 55 | 1019.0 |
| 20260507234005 | 42 | 112 | 0.0 | 2.0 | 0.00 | 0.00 | 0.00 | 55 | 1019.0 |
| 20260507233005 | 42 | 93 | 0.0 | 3.0 | 0.00 | 0.00 | 0.00 | 55 | 1019.0 |
| 20260507232505 | 42 | 90 | 0.0 | 4.0 | 0.00 | 0.00 | 0.00 | 55 | 1018.0 |
| 20260507231004 | 42 | 88 | 0.0 | 3.0 | 0.00 | 0.00 | 0.00 | 55 | 1018.0 |
| 20260507230505 | 42 | 87 | 0.0 | 3.0 | 0.00 | 0.00 | 0.00 | 55 | 1018.0 |
| 20260507230005 | 42 | 87 | 2.0 | 4.0 | 0.00 | 0.00 | 0.00 | 55 | 1018.0 |
| 20260507225504 | 42 | 87 | 1.0 | 4.0 | 0.00 | 0.00 | 0.00 | 55 | 1019.0 |
| 20260507225005 | 43 | 0 | 0.0 | 0.0 | 0.00 | 0.00 | 0.00 | 55 | 1019.0 |
| 20260507224505 | 43 | 88 | 0.0 | 5.0 | 0.00 | 0.00 | 0.00 | 54 | 1019.0 |
| 20260507224005 | 43 | 88 | 0.0 | 5.0 | 0.00 | 0.00 | 0.00 | 54 | 1018.0 |
| 20260507223505 | 43 | 0 | 0.0 | 0.0 | 0.00 | 0.00 | 0.00 | 54 | 1018.0 |
| 20260507222505 | 44 | 314 | 0.0 | 1.0 | 0.00 | 0.00 | 0.00 | 53 | 1018.0 |
| 20260507221504 | 44 | 314 | 0.0 | 2.0 | 0.00 | 0.00 | 0.00 | 53 | 1018.0 |
| 20260507221005 | 44 | 319 | 0.0 | 3.0 | 0.00 | 0.00 | 0.00 | 53 | 1018.0 |
| 20260507220504 | 44 | 329 | 0.0 | 4.0 | 0.00 | 0.00 | 0.00 | 53 | 1018.0 |
| 20260507220004 | 44 | 337 | 0.0 | 4.0 | 0.00 | 0.00 | 0.00 | 53 | 1018.0 |
| 20260507215504 | 44 | 0 | 0.0 | 0.0 | 0.00 | 0.00 | 0.00 | 54 | 1018.0 |
| 20260507214504 | 44 | 0 | 0.0 | 0.0 | 0.00 | 0.00 | 0.00 | 54 | 1018.0 |
| 20260507214004 | 44 | 0 | 0.0 | 0.0 | 0.00 | 0.00 | 0.00 | 55 | 1018.0 |
| 20260507213504 | 44 | 0 | 0.0 | 0.0 | 0.00 | 0.00 | 0.00 | 55 | 1018.0 |
| 20260507213005 | 44 | 0 | 0.0 | 0.0 | 0.00 | 0.00 | 0.00 | 55 | 1018.0 |
| 20260507212505 | 45 | 329 | 0.0 | 3.0 | 0.00 | 0.00 | 0.00 | 54 | 1018.0 |
| 20260507211505 | 45 | 292 | 0.0 | 2.0 | 0.00 | 0.00 | 0.00 | 55 | 1018.0 |
| 20260507210504 | 45 | 225 | 0.0 | 2.0 | 0.00 | 0.00 | 0.00 | 54 | 1017.0 |
| 20260507210006 | 45 | 266 | 1.0 | 3.0 | 0.00 | 0.00 | 0.00 | 54 | 1017.0 |
| 20260507205504 | 45 | 270 | 1.0 | 3.0 | 0.00 | 0.00 | 0.00 | 54 | 1017.0 |
| 20260507205005 | 45 | 0 | 0.0 | 0.0 | 0.00 | 0.00 | 0.00 | 54 | 1017.0 |
| 20260507204505 | 45 | 0 | 0.0 | 0.0 | 0.00 | 0.00 | 0.00 | 54 | 1017.0 |
| 20260507204004 | 45 | 0 | 0.0 | 0.0 | 0.00 | 0.00 | 0.00 | 54 | 1018.0 |
| 20260507203504 | 46 | 0 | 0.0 | 0.0 | 0.00 | 0.00 | 0.00 | 54 | 1018.0 |
| 20260507202006 | 46 | 0 | 0.0 | 0.0 | 0.00 | 0.00 | 0.00 | 53 | 1018.0 |
| 20260507201006 | 46 | 0 | 0.0 | 0.0 | 0.00 | 0.00 | 0.00 | 52 | 1018.0 |
| 20260507200504 | 46 | 0 | 0.0 | 0.0 | 0.00 | 0.00 | 0.00 | 52 | 1018.0 |
| 20260507195504 | 47 | 248 | 0.0 | 2.0 | 0.00 | 0.00 | 0.00 | 52 | 1018.0 |
| 20260507195006 | 47 | 0 | 0.0 | 0.0 | 0.00 | 0.00 | 0.00 | 51 | 1018.0 |
| 20260507194504 | 47 | 225 | 0.0 | 3.0 | 0.00 | 0.00 | 0.00 | 51 | 1018.0 |
| 20260507194005 | 47 | 225 | 0.0 | 3.0 | 0.00 | 0.00 | 0.00 | 51 | 1018.0 |
| 20260507193504 | 47 | 0 | 0.0 | 0.0 | 0.00 | 0.00 | 0.00 | 51 | 1018.0 |
| 20260507193005 | 48 | 0 | 0.0 | 0.0 | 0.00 | 0.00 | 0.00 | 51 | 1018.0 |
| 20260507192505 | 48 | 0 | 0.0 | 0.0 | 0.00 | 0.00 | 0.00 | 51 | 1018.0 |
| 20260507192006 | 48 | 237 | 0.0 | 4.0 | 0.00 | 0.00 | 0.00 | 50 | 1018.0 |
| 20260507191504 | 49 | 222 | 0.0 | 4.0 | 0.00 | 0.00 | 0.00 | 50 | 1018.0 |
| 20260507191006 | 49 | 223 | 1.0 | 3.0 | 0.00 | 0.00 | 0.00 | 50 | 1017.0 |
| 20260507190504 | 49 | 218 | 1.0 | 4.0 | 0.00 | 0.00 | 0.00 | 49 | 1017.0 |
| 20260507190005 | 50 | 203 | 0.0 | 4.0 | 0.00 | 0.00 | 0.00 | 49 | 1017.0 |
| 20260507185504 | 50 | 270 | 0.0 | 1.0 | 0.00 | 0.00 | 0.00 | 48 | 1016.0 |
| 20260507185006 | 51 | 270 | 0.0 | 1.0 | 0.00 | 0.00 | 0.00 | 48 | 1016.0 |
| 20260507184504 | 51 | 0 | 0.0 | 0.0 | 0.00 | 0.00 | 0.00 | 47 | 1016.0 |
| 20260507184005 | 51 | 248 | 0.0 | 5.0 | 0.00 | 0.00 | 0.00 | 48 | 1017.0 |
| 20260507183504 | 51 | 261 | 0.0 | 5.0 | 0.00 | 0.00 | 0.00 | 48 | 1017.0 |
| 20260507182504 | 52 | 253 | 1.0 | 5.0 | 0.00 | 0.00 | 0.00 | 47 | 1016.0 |
| 20260507182006 | 52 | 254 | 1.0 | 5.0 | 0.00 | 0.00 | 0.00 | 47 | 1016.0 |
| 20260507181504 | 53 | 269 | 0.0 | 3.0 | 0.00 | 0.00 | 0.00 | 47 | 1016.0 |
| 20260507181004 | 53 | 273 | 1.0 | 6.0 | 0.00 | 0.00 | 0.00 | 47 | 1016.0 |
| 20260507180505 | 53 | 297 | 2.0 | 7.0 | 0.00 | 0.00 | 0.00 | 46 | 1016.0 |
| 20260507175504 | 53 | 312 | 2.0 | 7.0 | 0.00 | 0.00 | 0.00 | 46 | 1016.0 |
| 20260507175005 | 53 | 317 | 2.0 | 7.0 | 0.00 | 0.00 | 0.00 | 45 | 1016.0 |
| 20260507174505 | 54 | 309 | 1.0 | 4.0 | 0.00 | 0.00 | 0.00 | 45 | 1016.0 |
| 20260507173005 | 54 | 312 | 4.0 | 11.0 | 0.00 | 0.00 | 0.00 | 44 | 1015.0 |
| 20260507172504 | 55 | 310 | 4.0 | 11.0 | 0.00 | 0.00 | 0.00 | 43 | 1016.0 |
| 20260507172005 | 55 | 291 | 2.0 | 10.0 | 0.00 | 0.00 | 0.00 | 42 | 1016.0 |
| 20260507171505 | 55 | 305 | 4.0 | 15.0 | 0.00 | 0.00 | 0.00 | 43 | 1016.0 |
| 20260507171005 | 55 | 312 | 7.0 | 15.0 | 0.00 | 0.00 | 0.00 | 42 | 1016.0 |
| 20260507170504 | 55 | 302 | 5.0 | 12.0 | 0.00 | 0.00 | 0.00 | 42 | 1016.0 |
| 20260507170006 | 55 | 302 | 5.0 | 13.0 | 0.00 | 0.00 | 0.00 | 41 | 1016.0 |
| 20260507165005 | 55 | 316 | 8.0 | 13.0 | 0.00 | 0.00 | 0.00 | 40 | 1016.0 |
| 20260507164504 | 55 | 318 | 8.0 | 13.0 | 0.00 | 0.00 | 0.00 | 41 | 1016.0 |
| 20260507164004 | 56 | 318 | 8.0 | 14.0 | 0.00 | 0.00 | 0.00 | 40 | 1017.0 |
| 20260507163505 | 56 | 315 | 8.0 | 14.0 | 0.00 | 0.00 | 0.00 | 41 | 1017.0 |
| 20260507163004 | 56 | 305 | 5.0 | 14.0 | 0.00 | 0.00 | 0.00 | 41 | 1017.0 |
| 20260507162504 | 56 | 270 | 4.0 | 10.0 | 0.00 | 0.00 | 0.00 | 43 | 1016.0 |
| 20260507162006 | 56 | 283 | 5.0 | 11.0 | 0.00 | 0.00 | 0.00 | 42 | 1016.0 |
| 20260507161504 | 56 | 298 | 5.0 | 11.0 | 0.00 | 0.00 | 0.00 | 42 | 1016.0 |
| 20260507160005 | 57 | 309 | 8.0 | 14.0 | 0.00 | 0.00 | 0.00 | 43 | 1016.0 |
| 20260507155505 | 57 | 315 | 8.0 | 15.0 | 0.00 | 0.00 | 0.00 | 43 | 1017.0 |
| 20260507155004 | 57 | 322 | 7.0 | 15.0 | 0.00 | 0.00 | 0.00 | 45 | 1017.0 |
| 20260507154505 | 57 | 313 | 7.0 | 13.0 | 0.00 | 0.00 | 0.00 | 44 | 1017.0 |
| 20260507154005 | 57 | 304 | 7.0 | 13.0 | 0.00 | 0.00 | 0.00 | 45 | 1016.0 |
| 20260507153504 | 57 | 300 | 7.0 | 13.0 | 0.00 | 0.00 | 0.00 | 43 | 1016.0 |
| 20260507153005 | 57 | 278 | 6.0 | 10.0 | 0.00 | 0.00 | 0.00 | 44 | 1016.0 |
| 20260507152504 | 57 | 266 | 6.0 | 11.0 | 0.00 | 0.00 | 0.00 | 45 | 1016.0 |
| 20260507151505 | 57 | 306 | 8.0 | 15.0 | 0.00 | 0.00 | 0.00 | 46 | 1016.0 |
| 20260507151004 | 57 | 303 | 7.0 | 15.0 | 0.00 | 0.00 | 0.00 | 44 | 1017.0 |
| 20260507150505 | 57 | 292 | 6.0 | 11.0 | 0.00 | 0.00 | 0.00 | 45 | 1017.0 |
| 20260507150006 | 57 | 283 | 6.0 | 12.0 | 0.00 | 0.00 | 0.00 | 46 | 1017.0 |
| 20260507145504 | 57 | 291 | 8.0 | 16.0 | 0.00 | 0.00 | 0.00 | 45 | 1016.0 |
| 20260507145005 | 57 | 298 | 7.0 | 16.0 | 0.00 | 0.00 | 0.00 | 46 | 1016.0 |
| 20260507144504 | 57 | 285 | 6.0 | 8.0 | 0.00 | 0.00 | 0.00 | 45 | 1016.0 |
| 20260507143004 | 57 | 302 | 7.0 | 14.0 | 0.00 | 0.00 | 0.00 | 47 | 1016.0 |
| 20260507142505 | 57 | 303 | 8.0 | 15.0 | 0.00 | 0.00 | 0.00 | 46 | 1017.0 |
| 20260507142005 | 57 | 309 | 7.0 | 15.0 | 0.00 | 0.00 | 0.00 | 46 | 1017.0 |
| 20260507141505 | 57 | 312 | 7.0 | 13.0 | 0.00 | 0.00 | 0.00 | 45 | 1017.0 |
| 20260507140505 | 57 | 311 | 9.0 | 15.0 | 0.00 | 0.00 | 0.00 | 46 | 1016.0 |
| 20260507140005 | 57 | 306 | 8.0 | 15.0 | 0.00 | 0.00 | 0.00 | 45 | 1016.0 |
| 20260507135006 | 58 | 309 | 8.0 | 14.0 | 0.00 | 0.00 | 0.00 | 45 | 1016.0 |
| 20260507134504 | 58 | 307 | 7.0 | 14.0 | 0.00 | 0.00 | 0.00 | 45 | 1016.0 |
| 20260507134006 | 58 | 298 | 5.0 | 13.0 | 0.00 | 0.00 | 0.00 | 44 | 1016.0 |
| 20260507133504 | 58 | 292 | 5.0 | 9.0 | 0.00 | 0.00 | 0.00 | 46 | 1016.0 |
| 20260507133005 | 57 | 303 | 6.0 | 11.0 | 0.00 | 0.00 | 0.00 | 45 | 1016.0 |
| 20260507132504 | 58 | 302 | 7.0 | 15.0 | 0.00 | 0.00 | 0.00 | 44 | 1016.0 |
| 20260507132005 | 57 | 298 | 7.0 | 16.0 | 0.00 | 0.00 | 0.00 | 45 | 1016.0 |
| 20260507131505 | 58 | 303 | 6.0 | 16.0 | 0.00 | 0.00 | 0.00 | 45 | 1016.0 |
| 20260507131004 | 58 | 303 | 6.0 | 12.0 | 0.00 | 0.00 | 0.00 | 45 | 1016.0 |
| 20260507130505 | 58 | 296 | 6.0 | 12.0 | 0.00 | 0.00 | 0.00 | 45 | 1016.0 |
| 20260507130005 | 58 | 282 | 5.0 | 11.0 | 0.00 | 0.00 | 0.00 | 46 | 1016.0 |
| 20260507125005 | 58 | 276 | 3.0 | 8.0 | 0.00 | 0.00 | 0.00 | 48 | 1016.0 |
| 20260507124505 | 58 | 277 | 4.0 | 10.0 | 0.00 | 0.00 | 0.00 | 49 | 1016.0 |
| 20260507124004 | 58 | 275 | 3.0 | 10.0 | 0.00 | 0.00 | 0.00 | 50 | 1016.0 |
| 20260507123005 | 58 | 260 | 4.0 | 8.0 | 0.00 | 0.00 | 0.00 | 51 | 1016.0 |
| 20260507122504 | 57 | 245 | 4.0 | 10.0 | 0.00 | 0.00 | 0.00 | 51 | 1016.0 |
| 20260507122005 | 57 | 250 | 5.0 | 10.0 | 0.00 | 0.00 | 0.00 | 50 | 1016.0 |
| 20260507121504 | 57 | 264 | 5.0 | 12.0 | 0.00 | 0.00 | 0.00 | 50 | 1016.0 |
| 20260507120504 | 57 | 271 | 5.0 | 12.0 | 0.00 | 0.00 | 0.00 | 50 | 1016.0 |
| 20260507115504 | 57 | 247 | 5.0 | 10.0 | 0.00 | 0.00 | 0.00 | 50 | 1015.0 |
| 20260507115006 | 57 | 253 | 5.0 | 11.0 | 0.00 | 0.00 | 0.00 | 50 | 1015.0 |
| 20260507114504 | 57 | 252 | 4.0 | 11.0 | 0.00 | 0.00 | 0.00 | 50 | 1015.0 |
| 20260507114004 | 57 | 254 | 4.0 | 9.0 | 0.00 | 0.00 | 0.00 | 51 | 1016.0 |
| 20260507113504 | 57 | 261 | 5.0 | 15.0 | 0.00 | 0.00 | 0.00 | 51 | 1016.0 |
| 20260507112004 | 57 | 244 | 5.0 | 10.0 | 0.00 | 0.00 | 0.00 | 51 | 1015.0 |
| 20260507111006 | 57 | 251 | 4.0 | 8.0 | 0.00 | 0.00 | 0.00 | 51 | 1015.0 |
| 20260507110004 | 56 | 252 | 5.0 | 11.0 | 0.00 | 0.00 | 0.00 | 49 | 1015.0 |
| 20260507105505 | 56 | 262 | 4.0 | 11.0 | 0.00 | 0.00 | 0.00 | 51 | 1016.0 |
| 20260507105004 | 57 | 261 | 4.0 | 10.0 | 0.00 | 0.00 | 0.00 | 50 | 1016.0 |
| 20260507104504 | 57 | 254 | 5.0 | 13.0 | 0.00 | 0.00 | 0.00 | 51 | 1016.0 |
| 20260507104005 | 57 | 254 | 5.0 | 13.0 | 0.00 | 0.00 | 0.00 | 50 | 1015.0 |
| 20260507103504 | 57 | 244 | 5.0 | 8.0 | 0.00 | 0.00 | 0.00 | 51 | 1015.0 |
| 20260507103005 | 57 | 267 | 5.0 | 10.0 | 0.00 | 0.00 | 0.00 | 52 | 1015.0 |
| 20260507102505 | 57 | 262 | 5.0 | 10.0 | 0.00 | 0.00 | 0.00 | 51 | 1015.0 |
| 20260507101506 | 57 | 237 | 5.0 | 9.0 | 0.00 | 0.00 | 0.00 | 51 | 1015.0 |
| 20260507101005 | 57 | 244 | 4.0 | 8.0 | 0.00 | 0.00 | 0.00 | 52 | 1015.0 |
| 20260507100505 | 57 | 239 | 4.0 | 6.0 | 0.00 | 0.00 | 0.00 | 52 | 1015.0 |
| 20260507100005 | 57 | 243 | 4.0 | 7.0 | 0.00 | 0.00 | 0.00 | 53 | 1015.0 |
| 20260507095504 | 56 | 253 | 5.0 | 12.0 | 0.00 | 0.00 | 0.00 | 52 | 1015.0 |
| 20260507095005 | 57 | 257 | 4.0 | 12.0 | 0.00 | 0.00 | 0.00 | 49 | 1015.0 |
| 20260507094505 | 57 | 246 | 3.0 | 7.0 | 0.00 | 0.00 | 0.00 | 51 | 1015.0 |
| 20260507094005 | 57 | 247 | 3.0 | 7.0 | 0.00 | 0.00 | 0.00 | 51 | 1015.0 |
| 20260507093504 | 57 | 260 | 4.0 | 11.0 | 0.00 | 0.00 | 0.00 | 52 | 1015.0 |
| 20260507093006 | 57 | 261 | 4.0 | 11.0 | 0.00 | 0.00 | 0.00 | 51 | 1015.0 |
| 20260507092504 | 56 | 246 | 2.0 | 7.0 | 0.00 | 0.00 | 0.00 | 50 | 1015.0 |
| 20260507092006 | 56 | 276 | 4.0 | 7.0 | 0.00 | 0.00 | 0.00 | 51 | 1015.0 |
| 20260507091505 | 56 | 274 | 4.0 | 8.0 | 0.00 | 0.00 | 0.00 | 48 | 1015.0 |
| 20260507090505 | 56 | 237 | 4.0 | 8.0 | 0.00 | 0.00 | 0.00 | 49 | 1015.0 |
| 20260507085504 | 56 | 243 | 4.0 | 14.0 | 0.00 | 0.00 | 0.00 | 50 | 1015.0 |
| 20260507085006 | 56 | 236 | 4.0 | 8.0 | 0.00 | 0.00 | 0.00 | 50 | 1015.0 |
| 20260507084505 | 55 | 240 | 3.0 | 6.0 | 0.00 | 0.00 | 0.00 | 50 | 1015.0 |
| 20260507084005 | 55 | 247 | 4.0 | 6.0 | 0.00 | 0.00 | 0.00 | 50 | 1014.0 |
| 20260507082505 | 55 | 246 | 4.0 | 8.0 | 0.00 | 0.00 | 0.00 | 50 | 1014.0 |
| 20260507082006 | 54 | 286 | 4.0 | 8.0 | 0.00 | 0.00 | 0.00 | 51 | 1014.0 |
| 20260507081504 | 54 | 282 | 4.0 | 7.0 | 0.00 | 0.00 | 0.00 | 48 | 1014.0 |
| 20260507080505 | 54 | 311 | 6.0 | 11.0 | 0.00 | 0.00 | 0.00 | 52 | 1014.0 |
| 20260507080006 | 53 | 320 | 7.0 | 11.0 | 0.00 | 0.00 | 0.00 | 49 | 1014.0 |
| 20260507075504 | 53 | 304 | 6.0 | 10.0 | 0.00 | 0.00 | 0.00 | 51 | 1014.0 |
| 20260507075005 | 53 | 275 | 4.0 | 9.0 | 0.00 | 0.00 | 0.00 | 54 | 1014.0 |
| 20260507074504 | 53 | 277 | 2.0 | 6.0 | 0.00 | 0.00 | 0.00 | 56 | 1014.0 |
| 20260507074005 | 53 | 295 | 2.0 | 9.0 | 0.00 | 0.00 | 0.00 | 55 | 1014.0 |
| 20260507073504 | 52 | 306 | 3.0 | 10.0 | 0.00 | 0.00 | 0.00 | 56 | 1014.0 |
| 20260507073005 | 52 | 314 | 4.0 | 10.0 | 0.00 | 0.00 | 0.00 | 56 | 1014.0 |
| 20260507072505 | 52 | 315 | 4.0 | 10.0 | 0.00 | 0.00 | 0.00 | 56 | 1014.0 |
| 20260507072004 | 52 | 293 | 3.0 | 9.0 | 0.00 | 0.00 | 0.00 | 56 | 1014.0 |
| 20260507071005 | 51 | 301 | 1.0 | 5.0 | 0.00 | 0.00 | 0.00 | 55 | 1014.0 |
| 20260507070009 | 51 | 331 | 5.0 | 9.0 | 0.00 | 0.00 | 0.00 | 55 | 1014.0 |
| 20260507065005 | 50 | 322 | 3.0 | 7.0 | 0.00 | 0.00 | 0.00 | 56 | 1013.0 |
| 20260507064504 | 50 | 329 | 3.0 | 5.0 | 0.00 | 0.00 | 0.00 | 57 | 1013.0 |
| 20260507064004 | 50 | 338 | 2.0 | 5.0 | 0.00 | 0.00 | 0.00 | 57 | 1013.0 |
| 20260507063505 | 50 | 76 | 1.0 | 7.0 | 0.00 | 0.00 | 0.00 | 59 | 1013.0 |
| 20260507063006 | 50 | 82 | 1.0 | 7.0 | 0.00 | 0.00 | 0.00 | 58 | 1013.0 |
| 20260507062504 | 50 | 97 | 0.0 | 4.0 | 0.00 | 0.00 | 0.00 | 60 | 1013.0 |
| 20260507061504 | 49 | 80 | 1.0 | 5.0 | 0.00 | 0.00 | 0.00 | 61 | 1013.0 |
| 20260507061005 | 48 | 71 | 1.0 | 5.0 | 0.00 | 0.00 | 0.00 | 65 | 1013.0 |
| 20260507060504 | 48 | 79 | 3.0 | 5.0 | 0.00 | 0.00 | 0.00 | 66 | 1013.0 |
| 20260507060005 | 46 | 87 | 4.0 | 6.0 | 0.00 | 0.00 | 0.00 | 68 | 1013.0 |
| 20260507055504 | 45 | 95 | 5.0 | 7.0 | 0.00 | 0.00 | 0.00 | 70 | 1014.0 |
| 20260507054004 | 43 | 94 | 5.0 | 7.0 | 0.00 | 0.00 | 0.00 | 73 | 1014.0 |
| 20260507053505 | 42 | 93 | 5.0 | 7.0 | 0.00 | 0.00 | 0.00 | 75 | 1014.0 |
| 20260507052005 | 41 | 93 | 5.0 | 7.0 | 0.00 | 0.00 | 0.00 | 77 | 1014.0 |
| 20260507051504 | 40 | 88 | 4.0 | 7.0 | 0.00 | 0.00 | 0.00 | 78 | 1014.0 |
| 20260507050504 | 40 | 95 | 6.0 | 9.0 | 0.00 | 0.00 | 0.00 | 79 | 1014.0 |
| 20260507050006 | 40 | 95 | 6.0 | 9.0 | 0.00 | 0.00 | 0.00 | 79 | 1014.0 |
| 20260507045005 | 40 | 101 | 6.0 | 8.0 | 0.00 | 0.00 | 0.00 | 82 | 1014.0 |
| 20260507044004 | 39 | 107 | 6.0 | 9.0 | 0.00 | 0.00 | 0.00 | 83 | 1014.0 |
| 20260507042504 | 38 | 87 | 1.0 | 5.0 | 0.00 | 0.00 | 0.00 | 80 | 1014.0 |
| 20260507042004 | 38 | 0 | 0.0 | 0.0 | 0.00 | 0.00 | 0.00 | 79 | 1014.0 |
| 20260507041505 | 38 | 0 | 0.0 | 0.0 | 0.00 | 0.00 | 0.00 | 79 | 1014.0 |
| 20260507041006 | 38 | 0 | 0.0 | 0.0 | 0.00 | 0.00 | 0.00 | 80 | 1014.0 |
| 20260507040504 | 38 | 0 | 0.0 | 0.0 | 0.00 | 0.00 | 0.00 | 80 | 1014.0 |
| 20260507040005 | 37 | 0 | 0.0 | 0.0 | 0.00 | 0.00 | 0.00 | 80 | 1014.0 |
| 20260507035504 | 37 | 0 | 0.0 | 0.0 | 0.00 | 0.00 | 0.00 | 80 | 1014.0 |
| 20260507035006 | 36 | 0 | 0.0 | 0.0 | 0.00 | 0.00 | 0.00 | 80 | 1014.0 |
| 20260507034004 | 36 | 0 | 0.0 | 0.0 | 0.00 | 0.00 | 0.00 | 79 | 1013.0 |
| 20260507033505 | 36 | 0 | 0.0 | 0.0 | 0.00 | 0.00 | 0.00 | 79 | 1013.0 |
| 20260507033005 | 36 | 0 | 0.0 | 0.0 | 0.00 | 0.00 | 0.00 | 79 | 1013.0 |
| 20260507032504 | 36 | 0 | 0.0 | 0.0 | 0.00 | 0.00 | 0.00 | 79 | 1013.0 |
| 20260507032005 | 36 | 0 | 0.0 | 0.0 | 0.00 | 0.00 | 0.00 | 79 | 1013.0 |
| 20260507031504 | 36 | 0 | 0.0 | 0.0 | 0.00 | 0.00 | 0.00 | 79 | 1013.0 |
| 20260507031006 | 36 | 0 | 0.0 | 0.0 | 0.00 | 0.00 | 0.00 | 79 | 1012.0 |
| 20260507030504 | 36 | 0 | 0.0 | 0.0 | 0.00 | 0.00 | 0.00 | 79 | 1012.0 |
| 20260507030004 | 36 | 0 | 0.0 | 0.0 | 0.00 | 0.00 | 0.00 | 79 | 1012.0 |
| 20260507025006 | 36 | 0 | 0.0 | 0.0 | 0.00 | 0.00 | 0.00 | 79 | 1012.0 |
| 20260507024504 | 36 | 0 | 0.0 | 0.0 | 0.00 | 0.00 | 0.00 | 78 | 1012.0 |
| 20260507024005 | 36 | 0 | 0.0 | 0.0 | 0.00 | 0.00 | 0.00 | 78 | 1012.0 |
| 20260507023504 | 36 | 0 | 0.0 | 0.0 | 0.00 | 0.00 | 0.00 | 77 | 1012.0 |